Regional Weather Roundup
Issued by NWS Spokane, WA

Home | Current Version | Previous Version | Text Only | Print | Product List | Glossary On
Versions: 1 2 3 4 5 6 7 8 9 10 11 12 13 14 15 16 17 18 19 20 21 22 23 24 25 26 27 28 29 30 31 32 33 34 35 36 37 38 39 40 41 42 43 44 45 46 47 48 49 50
000
NZUS01 KOTX 202210
RWROTX

Eastern Washington/Northern Idaho Roundup
National Weather Service, Spokane WA
300 PM PDT SAT JUL 20 2019

Note: "fair" indicated few or no clouds below 12,000 feet with no
significant weather and/or obstructions to visibility.

...Northeast Washington and Northern Idaho Panhandle...

CITY           SKY/WX    TMP DP  RH WIND       PRES   REMARKS
Spokane Intl   PTSUNNY   75  36  24 N15G21    30.09F
Spokane Downto CLOUDY    74  38  27 VRB7      30.09S
Coeur d Alene  MOSUNNY   77  35  21 W6        30.09F
Deer Park      PTSUNNY   74  38  27 N12G17    30.10S
Sandpoint      PTSUNNY   66  39  37 NW12G22   30.11R
Bonners Ferry  FAIR      68  46  45 W7        30.13R

...Southeast Washington and southern Idaho Panhandle...

CITY           SKY/WX    TMP DP  RH WIND       PRES   REMARKS
Walla Walla    SUNNY     83  31  15 NE3       30.02S
Pullman/Moscow SUNNY     76  33  21 VRB3      30.11S
Lewiston       SUNNY     82  35  18 VRB3      30.04F
Lowell           N/A     83  39  21 S3        30.02F
Grangeville    FAIR      72  34  25 N5        30.11S

...Columbia Basin...

CITY           SKY/WX    TMP DP  RH WIND       PRES   REMARKS
Ephrata        SUNNY     81  33  17 SE6       30.04F
Moses Lake     SUNNY     83  35  18 SW3       30.05F
Pasco          SUNNY     86  37  17 NE7       30.02F
Richland       CLEAR     85  31  14 NE8       30.03S
Hermiston      SUNNY     86  36  16 N8        30.01F
Pendleton      SUNNY     83  31  15 CALM      30.02F

...East Slopes Cascades...

CITY           SKY/WX    TMP DP  RH WIND       PRES   REMARKS
The Dalles     SUNNY     87  37  17 E9        29.98F
Yakima         SUNNY     81  38  21 VRB3      30.05F
Ellensburg     SUNNY     83  33  16 VRB5      30.06F
Stampede Pass  SUNNY     72  39  30 VRB5      30.14F
Wenatchee      SUNNY     81  33  17 SW13      30.03F
Omak           PTSUNNY   81  39  22 VRB3      30.06S
Sunnyside      CLEAR     80  44  27 SW7       30.03F

...Southern British Columbia...

CITY           SKY/WX    TMP DP  RH WIND       PRES   REMARKS
Penticton      MOSUNNY   75  48  38 N14       30.10S
Castlegar      MOSUNNY   72  46  40 NW8       30.11F
Cranbrook      MOSUNNY   54  45  71 N9G17     30.22R
Osoyoos          N/A     79  43  27 NW6         N/A
Creston          N/A     66  48  52 NW10G18     N/A

...Western Montana...

CITY           SKY/WX    TMP DP  RH WIND       PRES   REMARKS
Kalispell      CLOUDY    66  40  38 VRB5      30.09R
Missoula       MOSUNNY   76  33  21 N13       30.06S

...Neighboring Cities...

CITY           SKY/WX    TMP DP  RH WIND       PRES   REMARKS
Seattle        MOSUNNY   78  49  35 N12       30.07F
Portland       MOSUNNY   82  50  32 W14       29.97F
Boise          SUNNY     87  31  13 NW15G21   29.96F
Great Falls    SUNNY     73  28  18 MISG      30.06F
Calgary        PTSUNNY   64  52  63 NE8       30.12F



USA.gov is the U.S. government's official web portal to all federal, state and local government web resources and services.